[[{"header":{"parameterUnit":"m.s-1","parameterCategory":1,"la1":30.2991,"la2":30.254,"lo1":-89.0895,"lo2":-89.0444,"dy":0.0017,"dx":0.0017,"nx":28,"ny":28,"refTime":"2024-10-13T21:00:00:Z","depth":0,"parameterNumber":2,"parameterNumberName":"U-component_of_WINDS"},"data":[0,0,0,0,0,0,0,0,0,0,0,0,0,0,0,0,0,0,0,0,0,0,0,0,0,0,0,0,0,0,0,0,0,0,0,0,0,0,0,0,0,0,0,0,0,0,0,0,0,0,0,0,0,0,0,0,0,0,4.3866,4.3867,0,4.3964,4.3965,4.3966,4.3938,4.3936,4.3934,4.3932,4.403,4.4034,4.4039,0,0,0,0,0,0,0,0,0,0,0,0,0,4.3658,4.3662,4.3866,4.3867,4.3869,4.3963,4.3965,4.3966,4.3938,4.3935,4.3933,4.3931,4.4029,4.4034,4.4039,0,0,0,0,0,0,0,0,0,0,0,0,0,4.3751,4.3663,4.3866,4.3866,4.3867,4.3963,4.3965,4.3966,4.3938,4.3935,4.3932,4.393,4.4027,4.4033,4.404,4.4142,0,0,4.4061,4.4064,0,0,0,0,0,0,0,0,4.3746,4.3759,4.3865,4.3866,4.3868,4.3935,4.3927,4.4025,4.3939,4.3911,4.3932,4.3928,4.4001,4.401,4.4034,4.4146,4.415,4.4061,4.4065,4.4068,4.407,0,0,0,0,0,0,0,4.3739,4.3754,4.3905,4.3866,4.3868,4.3862,4.3872,4.3946,4.3972,4.3913,4.3912,4.3924,4.4001,4.4028,4.4037,4.4152,4.4061,4.4067,4.4071,4.4074,4.4356,4.436,0,0,0,0,0,0,4.3732,4.3749,4.3902,4.3908,4.3798,4.3868,4.3879,4.3917,4.3971,4.3976,4.3926,4.3922,4.4018,4.4029,4.404,4.4165,4.4068,4.4074,4.4078,4.4353,4.4357,4.4361,0,0,0,0,0,0,4.3727,4.3746,4.3898,4.3828,4.3847,4.3875,4.3917,4.392,4.3947,4.398,4.3985,4.3949,4.4016,4.403,4.4118,4.4168,4.4077,4.4084,4.4349,4.4354,4.4359,4.4414,0,0,0,0,0,0,4.3721,4.3744,4.3782,4.3829,4.3851,4.3973,4.392,4.3924,4.3959,4.3954,4.4003,4.4008,4.4015,4.4108,4.4124,4.4175,4.4089,4.4344,4.4351,4.4357,4.4408,4.4421,4.4431,0,0,0,0,0,4.3714,4.3793,4.3784,4.3803,4.3899,4.3976,4.3989,4.3995,4.3963,4.4002,4.4024,4.4006,4.416,4.4117,4.4135,4.4189,4.4341,4.4349,4.4357,4.4403,4.4418,4.4431,0,0,0,0,0,0,4.375,4.3799,4.379,4.3886,4.3928,4.3971,4.402,4.4011,4.4061,4.4055,4.4061,4.4072,4.4162,4.4184,4.4136,4.4293,4.4246,4.4258,4.4275,4.4289,4.4301,4.4294,4.4094,0,0,0,0,0,4.3769,4.3828,4.3867,4.3948,4.397,4.3992,4.4026,4.4028,4.407,4.4087,4.4116,4.4158,4.4216,4.4254,4.4309,4.4411,4.4423,4.4458,4.447,4.4479,4.4489,4.4549,4.4565,4.4386,4.4386,4.4386,0,0,4.3809,4.3843,4.3879,4.3956,4.3989,4.405,4.4007,4.4072,4.4118,4.4097,4.4182,4.4205,4.4253,4.4349,4.4393,4.437,4.4542,4.4489,4.4496,4.4502,4.4558,4.4575,4.459,4.4392,4.4391,4.439,0,0,4.3913,4.3944,4.4017,4.4051,4.4101,4.4116,4.4134,4.418,4.4195,4.428,4.4267,4.4322,4.4421,4.4457,4.4488,4.4611,4.4597,4.4629,4.469,4.4747,4.4762,4.4774,4.482,4.4836,4.4639,4.4639,4.4639,0,4.3956,4.4048,4.4055,4.4124,4.4159,4.4145,4.4219,4.4252,4.4317,4.4342,4.4317,4.4444,4.4474,4.458,4.4611,4.4636,4.4658,4.4623,4.4759,4.4772,4.4783,4.4827,4.4844,4.4642,4.4642,4.4642,4.4641,0,4.41,4.4164,4.4217,4.4282,4.4324,4.4394,4.4414,4.4455,4.4455,4.4473,4.4562,4.4599,4.4663,4.4688,4.4687,4.4796,4.4781,4.4757,4.471,4.4804,4.4846,4.4862,4.4648,4.4646,4.4645,4.4644,0,0,4.4226,4.4298,4.4317,4.4348,4.4405,4.4455,4.4527,4.459,4.4627,4.4673,4.4735,4.4821,4.4801,4.4837,4.484,4.4891,4.4989,4.4861,4.4863,4.4885,4.5114,4.5132,4.5151,4.4981,4.4984,4.4987,4.511,0,4.4337,4.4463,4.4474,4.4588,4.4649,4.4638,4.4701,4.4744,4.4764,4.4819,4.4841,4.4903,4.487,4.4892,4.4942,4.4967,4.5035,4.4958,4.5039,4.5042,4.5028,4.5172,4.5191,4.5305,4.5126,4.5129,4.5131,0,4.4481,4.4535,4.4656,4.4707,4.4733,4.4789,4.4851,4.4903,4.4952,4.4963,4.5005,4.5003,4.5079,4.503,4.5136,4.5083,4.5117,4.5135,4.514,4.5148,4.5092,4.5185,4.5342,4.5359,4.5156,4.5154,4.5152,0,4.4564,4.4666,4.4753,4.4779,4.4841,4.4881,4.4909,4.4955,4.4994,4.5048,4.5073,4.5135,4.5169,4.5217,4.5233,4.5195,4.5339,4.529,4.5351,4.5351,4.5381,4.5379,4.5547,4.5402,4.5402,4.5402,4.5402,0,4.4687,4.4762,4.4791,4.4844,4.4929,4.4941,4.5025,4.505,4.5092,4.5151,4.5145,4.5201,4.5217,4.5276,4.5289,4.5376,4.5391,4.5403,4.5405,4.5404,4.5403,4.5426,4.5419,4.5406,4.5405,4.5405,4.5404,0,4.4793,4.4815,4.491,4.4961,4.4976,4.5037,4.5081,4.5134,4.5154,4.5229,4.5247,4.5279,4.5349,4.537,4.5452,4.5461,4.5564,4.5559,4.5548,4.5548,4.5609,4.5603,4.5798,4.5825,4.5662,4.5663,4.5664,0,4.487,4.4928,4.4987,4.5027,4.5056,4.512,4.5161,4.5176,4.5219,4.5281,4.5326,4.5396,4.5451,4.5564,4.5595,4.5659,4.5656,4.572,4.5666,4.5664,4.5659,4.5656,4.5663,4.573,4.5732,4.5733,4.5734,0,4.5005,4.5014,4.5073,4.5138,4.5187,4.5238,4.5287,4.532,4.5343,4.5391,4.5463,4.5507,4.5594,4.5663,4.573,4.5759,4.5752,4.5752,4.577,4.5769,4.5761,4.5768,4.5577,4.5747,4.5746,4.5745,4.5744,4.5744,4.51,4.5152,4.5203,4.527,4.5309,4.5356,4.5409,4.5437,4.5498,4.557,4.5576,4.5654,4.5705,4.5794,4.5827,4.5889,4.5871,4.5896,4.5902,4.5909,4.5915,4.5751,4.5901,4.5901,4.5901,4.59,4.59,0,4.5236,4.5269,4.5331,4.5401,4.5455,4.5444,4.5499,4.5545,4.5614,4.5662,4.5719,4.5803,4.5872,4.591,4.5979,4.6022,4.602,4.6039,4.6036,4.6044,4.5926,4.5905,4.6039,4.6039,4.6039,4.6039,4.6039,4.6039,4.5313,4.5402,4.5418,4.5527,4.556,4.5638,4.567,4.5715,4.5754,4.5849,4.5906,4.5931,4.5976,4.6048,4.6112,4.6121,4.6147,4.6169,4.6177,4.6066,4.6052,4.6038,4.6018,4.6174,4.6174,4.6289,4.629,4.6291]},{"header":{"parameterUnit":"m.s-1","parameterCategory":1,"la1":30.2991,"la2":30.254,"lo1":-89.0895,"lo2":-89.0444,"dy":0.0017,"dx":0.0017,"nx":28,"ny":28,"refTime":"2024-10-13T21:00:00:Z","depth":0,"parameterNumber":3,"parameterNumberName":"V-component_of_WINDS"},"data":[0,0,0,0,0,0,0,0,0,0,0,0,0,0,0,0,0,0,0,0,0,0,0,0,0,0,0,0,0,0,0,0,0,0,0,0,0,0,0,0,0,0,0,0,0,0,0,0,0,0,0,0,0,0,0,0,0,0,-2.5587,-2.5587,0,-2.5588,-2.5588,-2.5588,-2.5595,-2.5595,-2.5595,-2.5595,-2.5593,-2.5593,-2.5593,0,0,0,0,0,0,0,0,0,0,0,0,0,-2.5587,-2.5587,-2.5587,-2.5587,-2.5587,-2.5588,-2.5588,-2.5588,-2.5595,-2.5595,-2.5595,-2.5595,-2.5593,-2.5593,-2.5593,0,0,0,0,0,0,0,0,0,0,0,0,0,-2.5588,-2.5587,-2.5587,-2.559,-2.5591,-2.5588,-2.5588,-2.5588,-2.5595,-2.5595,-2.5595,-2.5595,-2.5593,-2.5593,-2.5593,-2.5586,0,0,-2.5592,-2.5591,0,0,0,0,0,0,0,0,-2.5588,-2.5588,-2.559,-2.559,-2.559,-2.5592,-2.5588,-2.5587,-2.5594,-2.5593,-2.5595,-2.5595,-2.5592,-2.5592,-2.5592,-2.5586,-2.5586,-2.5592,-2.5591,-2.5591,-2.5591,0,0,0,0,0,0,0,-2.5587,-2.5587,-2.5587,-2.559,-2.559,-2.5591,-2.5591,-2.5588,-2.5591,-2.5593,-2.5594,-2.5594,-2.5592,-2.5592,-2.5592,-2.5586,-2.5592,-2.5591,-2.5591,-2.5591,-2.5576,-2.5576,0,0,0,0,0,0,-2.5587,-2.5587,-2.5587,-2.5587,-2.559,-2.5591,-2.5591,-2.5591,-2.5591,-2.5591,-2.5594,-2.5594,-2.5592,-2.5592,-2.5591,-2.5585,-2.5591,-2.5591,-2.5591,-2.5576,-2.5576,-2.5576,0,0,0,0,0,0,-2.5587,-2.5587,-2.5587,-2.5588,-2.5588,-2.5591,-2.559,-2.5591,-2.559,-2.5592,-2.5592,-2.5593,-2.5592,-2.5592,-2.5588,-2.5585,-2.5591,-2.5591,-2.5577,-2.5576,-2.5576,-2.557,0,0,0,0,0,0,-2.5587,-2.5587,-2.5585,-2.5588,-2.5588,-2.5584,-2.559,-2.5591,-2.559,-2.5591,-2.5591,-2.5591,-2.5593,-2.5588,-2.5588,-2.5584,-2.559,-2.5577,-2.5576,-2.5576,-2.5571,-2.557,-2.5569,0,0,0,0,0,-2.5587,-2.5582,-2.5585,-2.5585,-2.5585,-2.5584,-2.5584,-2.5587,-2.559,-2.5588,-2.5589,-2.5591,-2.5585,-2.5588,-2.5587,-2.5584,-2.5577,-2.5577,-2.5576,-2.5571,-2.557,-2.5569,0,0,0,0,0,0,-2.5577,-2.5583,-2.5586,-2.5581,-2.5582,-2.5585,-2.5582,-2.5585,-2.5584,-2.5585,-2.5588,-2.5587,-2.5583,-2.5583,-2.5586,-2.5578,-2.5582,-2.5581,-2.5578,-2.5577,-2.5576,-2.5576,-2.559,0,0,0,0,0,-2.5575,-2.5575,-2.5579,-2.5575,-2.5575,-2.5579,-2.5578,-2.5581,-2.5581,-2.5581,-2.5582,-2.5582,-2.558,-2.5578,-2.5577,-2.5571,-2.5571,-2.5568,-2.5568,-2.5567,-2.5566,-2.5564,-2.5563,-2.5574,-2.5574,-2.5574,0,0,-2.557,-2.5572,-2.5571,-2.5573,-2.5574,-2.5573,-2.5579,-2.5577,-2.5576,-2.558,-2.5577,-2.5578,-2.5578,-2.5573,-2.5571,-2.5573,-2.5563,-2.5566,-2.5566,-2.5565,-2.5563,-2.5562,-2.5561,-2.5574,-2.5574,-2.5574,0,0,-2.5559,-2.5561,-2.5559,-2.556,-2.5563,-2.5565,-2.5565,-2.5567,-2.5569,-2.5566,-2.557,-2.5568,-2.5565,-2.5565,-2.5565,-2.5557,-2.5559,-2.5556,-2.5551,-2.5549,-2.5548,-2.5548,-2.5545,-2.5544,-2.5556,-2.5556,-2.5556,0,-2.5551,-2.5551,-2.5556,-2.5555,-2.5556,-2.5562,-2.5559,-2.556,-2.5561,-2.5561,-2.5564,-2.5561,-2.5561,-2.5557,-2.5556,-2.5555,-2.5554,-2.5556,-2.5548,-2.5547,-2.5547,-2.5544,-2.5543,-2.5555,-2.5555,-2.5555,-2.5555,0,-2.5542,-2.5541,-2.5539,-2.5542,-2.5542,-2.554,-2.5545,-2.5545,-2.5548,-2.555,-2.5548,-2.5549,-2.5548,-2.5547,-2.5549,-2.5544,-2.5545,-2.5548,-2.5552,-2.5545,-2.5543,-2.5542,-2.5555,-2.5555,-2.5555,-2.5555,0,0,-2.5523,-2.5531,-2.553,-2.5532,-2.5536,-2.5536,-2.5534,-2.5535,-2.5535,-2.5536,-2.5535,-2.5533,-2.5536,-2.5536,-2.5538,-2.5537,-2.5531,-2.554,-2.554,-2.5538,-2.5526,-2.5524,-2.5523,-2.5533,-2.5533,-2.5533,-2.5526,0,-2.5513,-2.5512,-2.5518,-2.5515,-2.5515,-2.5522,-2.5521,-2.5523,-2.5526,-2.5526,-2.5528,-2.5527,-2.5531,-2.5531,-2.553,-2.5532,-2.5529,-2.5533,-2.5531,-2.5531,-2.5531,-2.5522,-2.5519,-2.5512,-2.5525,-2.5525,-2.5525,0,-2.5501,-2.5503,-2.5501,-2.5507,-2.5507,-2.5506,-2.5509,-2.5509,-2.5512,-2.5514,-2.5515,-2.5518,-2.5517,-2.5522,-2.552,-2.5522,-2.5522,-2.5524,-2.5523,-2.5523,-2.5527,-2.5521,-2.551,-2.5509,-2.5524,-2.5524,-2.5524,0,-2.5488,-2.549,-2.549,-2.5491,-2.5498,-2.5498,-2.55,-2.5504,-2.5504,-2.5506,-2.5507,-2.5508,-2.5508,-2.5509,-2.5513,-2.5516,-2.5511,-2.5515,-2.5512,-2.5512,-2.551,-2.551,-2.5499,-2.5511,-2.5511,-2.5511,-2.5511,0,-2.5475,-2.5474,-2.5484,-2.5484,-2.5482,-2.5489,-2.5487,-2.5491,-2.5494,-2.5494,-2.55,-2.55,-2.5505,-2.5505,-2.5508,-2.5507,-2.5507,-2.5508,-2.5509,-2.5508,-2.5507,-2.5507,-2.5507,-2.551,-2.551,-2.551,-2.5511,0,-2.546,-2.5467,-2.5467,-2.5474,-2.5476,-2.5475,-2.5481,-2.5481,-2.5485,-2.5485,-2.5485,-2.5491,-2.5492,-2.5497,-2.5498,-2.55,-2.5497,-2.5499,-2.5497,-2.5497,-2.5494,-2.5494,-2.5482,-2.5481,-2.5493,-2.5493,-2.5493,0,-2.5451,-2.545,-2.5459,-2.546,-2.5463,-2.5465,-2.5467,-2.5474,-2.5475,-2.548,-2.5479,-2.5481,-2.5483,-2.5484,-2.5488,-2.5489,-2.5491,-2.5486,-2.5491,-2.549,-2.5491,-2.5491,-2.5491,-2.5485,-2.5485,-2.5485,-2.5485,0,-2.5435,-2.544,-2.5443,-2.5447,-2.545,-2.5453,-2.5457,-2.5457,-2.5465,-2.5467,-2.5469,-2.547,-2.5473,-2.5475,-2.5477,-2.5479,-2.5483,-2.5484,-2.5483,-2.5481,-2.548,-2.5481,-2.5494,-2.5484,-2.5484,-2.5484,-2.5484,-2.5484,-2.5423,-2.5423,-2.543,-2.5433,-2.5438,-2.5442,-2.5442,-2.5448,-2.545,-2.5454,-2.5458,-2.546,-2.5464,-2.5468,-2.547,-2.5471,-2.5473,-2.5472,-2.5472,-2.5472,-2.5471,-2.5481,-2.5472,-2.5472,-2.5472,-2.5472,-2.5472,0,-2.5408,-2.5413,-2.5416,-2.5423,-2.5425,-2.5431,-2.5436,-2.5438,-2.544,-2.5444,-2.5447,-2.545,-2.5452,-2.5457,-2.546,-2.546,-2.5462,-2.546,-2.546,-2.5461,-2.5469,-2.5469,-2.5459,-2.5459,-2.5459,-2.5459,-2.5459,-2.5459,-2.54,-2.5401,-2.5406,-2.541,-2.5415,-2.5418,-2.5421,-2.5424,-2.5428,-2.5432,-2.5435,-2.5439,-2.5444,-2.5447,-2.545,-2.5451,-2.5452,-2.545,-2.5452,-2.5459,-2.546,-2.5461,-2.5461,-2.545,-2.545,-2.5443,-2.5443,-2.5443]}]]